Mt. Pocono, PA

1:25 AM EST on December 12, 2019 (GMT -0500)
Pocono Mountains Municipal

Weather History for KMPO - October, 2019

Change the Weather History Date:

Saturday, October 5, 2019

  Actual Average Record
Temperature  
Mean Temperature 42 °F 51 °F  
Max Temperature 53 °F 61 °F 82 °F (1951)
Min Temperature 32 °F 42 °F 25 °F (1965)
Degree Days  
Heating Degree Days 22 14  
Month to date heating degree days 53 65  
Since 1 July heating degree days 231 333  
Cooling Degree Days 0 0  
Month to date cooling degree days 5 0  
Year to date cooling degree days 348 313  
Moisture  
Dew Point 32 °F    
Average Humidity 72    
Maximum Humidity 100    
Minimum Humidity 43    
Precipitation  
Precipitation 0.00 in 0.15 in 1.50 in (1932)
Month to date precipitation 0.65 0.81  
Year to date precipitation 36.87 37.15  
Sea Level Pressure  
Sea Level Pressure 30.41 in    
Wind  
Wind Speed 8 mph ()    
Max Wind Speed 20 mph    
Max Gust Speed 24 mph    
Visibility 10.0 miles    
Events      
T = Trace of Precipitation, MM = Missing Value Source: Averaged Metar Reports

Daily Weather History Graph

Daily Weather History Graph

Search for Another Location

Airport or City:

Astronomy

Oct. 05, 2019 Rise Set
Actual Time 7:02 AM EDT 6:37 PM EDT
Civil Twilight 6:34 AM EDT 7:04 PM EDT
Nautical Twilight 6:02 AM EDT 7:36 PM EDT
Astronomical Twilight 5:30 AM EDT 8:08 PM EDT
Moon 2:28 PM EDT (10/5) 11:55 PM EDT (10/5)
Length of Visible Light 12h 30m
Length of Day
11h 35m
Waxing Crescent, 50% of the Moon is Illuminated
Oct 5
Waxing Crescent
Oct 5
First Quarter
Oct 13
Full
Oct 21
Last Quarter
Oct 27
New

Hourly Weather History & Observations

Time (EDT) Temp. Windchill Dew Point Humidity Pressure Visibility Wind Dir Wind Speed Gust Speed Precip Events Conditions
12:53 AM 39.0 °F 29.3 °F 35.1 °F 86% 30.38 in 10.0 mi North 19.6 mph 24.2 mph N/A   Clear
1:53 AM 37.0 °F 29.3 °F 34.0 °F 89% 30.40 in 10.0 mi North 11.5 mph - N/A   Clear
2:53 AM 36.0 °F 29.6 °F 33.1 °F 89% 30.41 in 10.0 mi North 8.1 mph - N/A   Clear
3:53 AM 34.0 °F 27.2 °F 33.1 °F 96% 30.42 in 10.0 mi North 8.1 mph - N/A   Clear
4:53 AM 33.1 °F 28.7 °F 32.0 °F 96% 30.42 in 10.0 mi NNE 4.6 mph - N/A   Clear
5:53 AM 34.0 °F 29.8 °F 33.1 °F 96% 30.43 in 10.0 mi NNE 4.6 mph - N/A   Clear
6:53 AM 32.0 °F 28.7 °F 30.9 °F 96% 30.44 in 10.0 mi NE 3.5 mph - N/A   Clear
7:53 AM 34.0 °F 29.8 °F 32.0 °F 92% 30.46 in 10.0 mi NE 4.6 mph - N/A   Clear
8:53 AM 39.0 °F 34.0 °F 30.9 °F 73% 30.47 in 10.0 mi Variable 6.9 mph 17.3 mph N/A   Clear
9:53 AM 41.0 °F 35.2 °F 30.9 °F 67% 30.48 in 10.0 mi East 9.2 mph - N/A   Clear
10:53 AM 44.1 °F 40.8 °F 30.0 °F 58% 30.47 in 10.0 mi Variable 5.8 mph - N/A   Clear
11:53 AM 46.9 °F - 28.9 °F 50% 30.46 in 10.0 mi East 11.5 mph 17.3 mph N/A   Clear
12:53 PM 48.9 °F - 28.9 °F 46% 30.45 in 10.0 mi Variable 4.6 mph - N/A   Clear
1:53 PM 51.1 °F - 30.0 °F 44% 30.42 in 10.0 mi ESE 5.8 mph - N/A   Clear
2:53 PM 52.0 °F - 30.9 °F 45% 30.40 in 10.0 mi ESE 6.9 mph - N/A   Clear
3:53 PM 52.0 °F - 30.9 °F 45% 30.39 in 10.0 mi Variable 6.9 mph - N/A   Clear
4:53 PM 52.0 °F - 30.0 °F 43% 30.38 in 10.0 mi SE 9.2 mph - N/A   Clear
5:53 PM 50.0 °F - 30.0 °F 46% 30.38 in 10.0 mi SE 6.9 mph - N/A   Clear
6:53 PM 44.1 °F 42.5 °F 34.0 °F 68% 30.38 in 10.0 mi ESE 3.5 mph - N/A   Clear
7:53 PM 42.1 °F 38.4 °F 34.0 °F 73% 30.38 in 10.0 mi ESE 5.8 mph - N/A   Clear
8:53 PM 42.1 °F 37.7 °F 35.1 °F 76% 30.38 in 10.0 mi ESE 6.9 mph - N/A   Clear
9:53 PM 41.0 °F 37.1 °F 36.0 °F 82% 30.38 in 10.0 mi SE 5.8 mph - N/A   Clear
11:53 PM 42.1 °F 39.2 °F 39.0 °F 89% 30.36 in 10.0 mi SSE 4.6 mph - N/A   Scattered Clouds